Time,TemperatureF,DewpointF,PressureIn,WindDirection,WindDirectionDegrees,WindSpeedMPH,WindSpeedGustMPH,Humidity,HourlyPrecipIn,Conditions,Clouds,dailyrainin,SoftwareType,DateUTC
2013-03-16 00:01:00,27.7,24.0,29.23,NE,45,0.0,0.0,86,0.00,,,0.00,WUHU21623XXSP,2013-03-16 05:01:00,
2013-03-16 00:06:00,27.7,24.0,29.22,NE,45,0.0,0.0,86,0.00,,,0.00,WUHU21623XXSP,2013-03-16 05:06:00,
2013-03-16 00:12:00,27.7,24.0,29.23,NE,45,0.0,0.0,86,0.00,,,0.00,WUHU21623XXSP,2013-03-16 05:12:00,
2013-03-16 00:17:00,27.7,24.0,29.22,NE,45,0.0,0.0,86,0.00,,,0.00,WUHU21623XXSP,2013-03-16 05:17:00,
2013-03-16 00:22:00,27.5,23.5,29.22,NE,45,0.0,0.0,85,0.00,,,0.00,WUHU21623XXSP,2013-03-16 05:22:00,
2013-03-16 00:27:00,27.3,23.4,29.23,NE,45,0.0,0.0,85,0.00,,,0.00,WUHU21623XXSP,2013-03-16 05:27:00,
2013-03-16 00:32:00,27.1,23.4,29.23,NE,45,0.0,0.0,85,0.00,,,0.00,WUHU21623XXSP,2013-03-16 05:32:00,
2013-03-16 00:37:00,27.3,23.2,29.22,NE,45,0.0,0.0,85,0.00,,,0.00,WUHU21623XXSP,2013-03-16 05:37:00,
2013-03-16 00:42:00,27.1,23.5,29.22,NE,45,0.0,0.0,86,0.00,,,0.00,WUHU21623XXSP,2013-03-16 05:42:00,
2013-03-16 00:47:00,27.1,23.5,29.23,NE,45,0.0,0.0,86,0.00,,,0.00,WUHU21623XXSP,2013-03-16 05:47:00,
2013-03-16 00:52:00,27.1,23.5,29.23,NE,45,0.0,0.0,86,0.00,,,0.00,WUHU21623XXSP,2013-03-16 05:52:00,
2013-03-16 00:57:00,27.1,23.5,29.24,NE,45,0.0,0.0,86,0.00,,,0.00,WUHU21623XXSP,2013-03-16 05:57:00,
2013-03-16 01:02:00,27.1,23.5,29.24,NE,45,0.0,0.0,86,0.00,,,0.00,WUHU21623XXSP,2013-03-16 06:02:00,
2013-03-16 01:07:00,27.1,23.5,29.24,NE,45,0.0,0.0,86,0.00,,,0.00,WUHU21623XXSP,2013-03-16 06:07:00,
2013-03-16 01:12:00,27.0,23.3,29.25,NE,45,0.0,0.0,86,0.00,,,0.00,WUHU21623XXSP,2013-03-16 06:12:00,
2013-03-16 01:17:00,27.0,23.3,29.25,NE,45,0.0,0.0,86,0.00,,,0.00,WUHU21623XXSP,2013-03-16 06:17:00,
2013-03-16 01:22:00,26.6,22.9,29.25,NE,45,0.0,0.0,86,0.00,,,0.00,WUHU21623XXSP,2013-03-16 06:22:00,
2013-03-16 01:27:00,26.6,22.9,29.25,NE,45,0.0,0.0,86,0.00,,,0.00,WUHU21623XXSP,2013-03-16 06:27:00,
2013-03-16 01:33:00,26.6,22.9,29.25,NE,45,0.0,0.0,86,0.00,,,0.00,WUHU21623XXSP,2013-03-16 06:33:00,
2013-03-16 01:38:00,26.6,22.6,29.25,NE,45,0.0,0.0,85,0.00,,,0.00,WUHU21623XXSP,2013-03-16 06:38:00,
2013-03-16 01:43:00,26.1,22.1,29.25,NE,45,0.0,0.0,85,0.00,,,0.00,WUHU21623XXSP,2013-03-16 06:43:00,
2013-03-16 01:48:00,26.1,22.1,29.25,NE,45,0.0,0.0,85,0.00,,,0.00,WUHU21623XXSP,2013-03-16 06:48:00,
2013-03-16 01:53:00,26.1,22.1,29.25,NE,45,0.0,0.0,85,0.00,,,0.00,WUHU21623XXSP,2013-03-16 06:53:00,
2013-03-16 01:58:00,25.7,21.8,29.25,NE,45,0.0,0.0,85,0.00,,,0.00,WUHU21623XXSP,2013-03-16 06:58:00,
2013-03-16 02:03:00,25.5,21.6,29.25,NE,45,0.0,0.0,85,0.00,,,0.00,WUHU21623XXSP,2013-03-16 07:03:00,
2013-03-16 02:08:00,25.5,21.6,29.25,NE,45,0.0,0.0,85,0.00,,,0.00,WUHU21623XXSP,2013-03-16 07:08:00,
2013-03-16 02:13:00,25.5,21.6,29.25,NE,45,0.0,0.0,85,0.00,,,0.00,WUHU21623XXSP,2013-03-16 07:13:00,
2013-03-16 02:18:00,25.5,21.6,29.26,NE,45,0.0,0.0,85,0.00,,,0.00,WUHU21623XXSP,2013-03-16 07:18:00,
2013-03-16 02:23:00,25.5,21.6,29.26,NE,45,0.0,0.0,85,0.00,,,0.00,WUHU21623XXSP,2013-03-16 07:23:00,
2013-03-16 02:28:00,25.3,21.6,29.26,NE,45,0.0,0.0,85,0.00,,,0.00,WUHU21623XXSP,2013-03-16 07:28:00,
2013-03-16 02:33:00,25.3,21.4,29.26,NE,45,0.0,0.0,85,0.00,,,0.00,WUHU21623XXSP,2013-03-16 07:33:00,
2013-03-16 02:38:00,25.3,21.4,29.26,NE,45,0.0,0.0,85,0.00,,,0.00,WUHU21623XXSP,2013-03-16 07:38:00,
2013-03-16 02:43:00,25.2,21.3,29.26,NE,45,0.0,0.0,85,0.00,,,0.00,WUHU21623XXSP,2013-03-16 07:43:00,
2013-03-16 02:48:00,25.0,21.1,29.26,NE,45,0.0,0.0,85,0.00,,,0.00,WUHU21623XXSP,2013-03-16 07:48:00,
2013-03-16 02:53:00,25.0,21.1,29.26,NE,45,0.0,0.0,85,0.00,,,0.00,WUHU21623XXSP,2013-03-16 07:53:00,
2013-03-16 02:58:00,25.0,21.1,29.26,NE,45,0.0,0.0,85,0.00,,,0.00,WUHU21623XXSP,2013-03-16 07:58:00,
2013-03-16 03:03:00,25.0,21.1,29.26,NE,45,0.0,0.0,85,0.00,,,0.00,WUHU21623XXSP,2013-03-16 08:03:00,
2013-03-16 03:08:00,25.0,21.1,29.26,NE,45,0.0,0.0,85,0.00,,,0.00,WUHU21623XXSP,2013-03-16 08:08:00,
2013-03-16 03:13:00,25.0,21.1,29.26,NE,45,0.0,0.0,85,0.00,,,0.00,WUHU21623XXSP,2013-03-16 08:13:00,
2013-03-16 03:18:00,25.0,21.1,29.27,NE,45,0.0,0.0,85,0.00,,,0.00,WUHU21623XXSP,2013-03-16 08:18:00,
2013-03-16 03:23:00,24.4,20.6,29.26,NE,45,0.0,0.0,85,0.00,,,0.00,WUHU21623XXSP,2013-03-16 08:23:00,
2013-03-16 03:28:00,24.4,20.6,29.26,NE,45,0.0,0.0,85,0.00,,,0.00,WUHU21623XXSP,2013-03-16 08:28:00,
2013-03-16 03:33:00,24.4,20.6,29.27,NE,45,0.0,0.0,85,0.00,,,0.00,WUHU21623XXSP,2013-03-16 08:33:00,
2013-03-16 03:38:00,24.4,20.6,29.27,NE,45,0.0,0.0,85,0.00,,,0.00,WUHU21623XXSP,2013-03-16 08:38:00,
2013-03-16 03:43:00,24.1,20.2,29.27,NE,45,0.0,0.0,85,0.00,,,0.00,WUHU21623XXSP,2013-03-16 08:43:00,
2013-03-16 03:48:00,24.1,20.2,29.27,NE,45,0.0,0.0,85,0.00,,,0.00,WUHU21623XXSP,2013-03-16 08:48:00,
2013-03-16 03:53:00,24.1,20.2,29.27,NE,45,0.0,0.0,85,0.00,,,0.00,WUHU21623XXSP,2013-03-16 08:53:00,
2013-03-16 03:58:00,24.1,20.2,29.27,NE,45,0.0,0.0,85,0.00,,,0.00,WUHU21623XXSP,2013-03-16 08:58:00,
2013-03-16 04:03:00,24.1,20.2,29.27,NE,45,0.0,0.0,85,0.00,,,0.00,WUHU21623XXSP,2013-03-16 09:03:00,
2013-03-16 06:24:00,21.4,16.4,29.36,NE,45,0.0,0.0,81,0.00,,,0.00,WUHU21623XXSP,2013-03-16 11:24:00,
2013-03-16 06:29:00,21.4,16.4,29.36,NE,45,0.0,0.0,81,0.00,,,0.00,WUHU21623XXSP,2013-03-16 11:29:00,
2013-03-16 06:34:00,21.4,16.4,29.36,NE,45,0.0,0.0,81,0.00,,,0.00,WUHU21623XXSP,2013-03-16 11:34:00,
2013-03-16 06:39:00,21.4,16.4,29.36,NE,45,0.0,0.0,81,0.00,,,0.00,WUHU21623XXSP,2013-03-16 11:39:00,
2013-03-16 06:44:00,21.4,16.4,29.37,NE,45,0.0,0.0,81,0.00,,,0.00,WUHU21623XXSP,2013-03-16 11:44:00,
2013-03-16 07:18:00,19.6,14.4,29.39,NE,45,0.0,0.0,80,0.00,,,0.00,WUHU21623XXSP,2013-03-16 12:18:00,
2013-03-16 07:23:00,19.6,14.4,29.40,NE,45,0.0,0.0,80,0.00,,,0.00,WUHU21623XXSP,2013-03-16 12:23:00,
2013-03-16 07:28:00,19.6,14.4,29.40,NE,45,0.0,0.0,80,0.00,,,0.00,WUHU21623XXSP,2013-03-16 12:28:00,
2013-03-16 07:33:00,19.4,14.2,29.40,NE,45,0.0,0.0,80,0.00,,,0.00,WUHU21623XXSP,2013-03-16 12:33:00,
2013-03-16 07:38:00,19.2,13.7,29.41,NE,45,0.0,0.0,79,0.00,,,0.00,WUHU21623XXSP,2013-03-16 12:38:00,
2013-03-16 07:43:00,19.2,13.7,29.41,NE,45,0.0,0.0,79,0.00,,,0.00,WUHU21623XXSP,2013-03-16 12:43:00,
2013-03-16 07:48:00,19.0,13.5,29.42,NE,45,0.0,0.0,79,0.00,,,0.00,WUHU21623XXSP,2013-03-16 12:48:00,
2013-03-16 07:53:00,19.0,13.5,29.42,NE,45,0.0,0.0,79,0.00,,,0.00,WUHU21623XXSP,2013-03-16 12:53:00,
2013-03-16 07:58:00,19.6,14.4,29.42,NE,45,0.0,0.0,80,0.00,,,0.00,WUHU21623XXSP,2013-03-16 12:58:00,
2013-03-16 08:03:00,21.7,16.8,29.42,NE,45,0.0,0.0,81,0.00,,,0.00,WUHU21623XXSP,2013-03-16 13:03:00,
2013-03-16 08:08:00,23.4,17.7,29.42,NE,45,0.0,0.0,81,0.00,,,0.00,WUHU21623XXSP,2013-03-16 13:08:00,
2013-03-16 08:13:00,24.4,18.2,29.42,NE,45,0.0,0.0,77,0.00,,,0.00,WUHU21623XXSP,2013-03-16 13:13:00,
2013-03-16 08:18:00,25.9,18.7,29.42,NE,45,0.0,0.0,74,0.00,,,0.00,WUHU21623XXSP,2013-03-16 13:18:00,
2013-03-16 08:23:00,26.8,19.2,29.42,NE,45,0.0,0.0,73,0.00,,,0.00,WUHU21623XXSP,2013-03-16 13:23:00,
2013-03-16 08:28:00,27.7,19.8,29.42,NE,45,0.0,0.0,72,0.00,,,0.00,WUHU21623XXSP,2013-03-16 13:28:00,
2013-03-16 08:33:00,29.1,19.9,29.43,NE,45,0.0,0.0,68,0.00,,,0.00,WUHU21623XXSP,2013-03-16 13:33:00,
2013-03-16 08:39:00,29.8,20.2,29.43,NE,45,0.0,0.0,67,0.00,,,0.00,WUHU21623XXSP,2013-03-16 13:39:00,
2013-03-16 08:44:00,30.7,20.3,29.43,NE,45,0.0,0.0,65,0.00,,,0.00,WUHU21623XXSP,2013-03-16 13:44:00,
2013-03-16 08:49:00,31.3,20.5,29.43,NE,45,0.0,0.0,64,0.00,,,0.00,WUHU21623XXSP,2013-03-16 13:49:00,
2013-03-16 08:54:00,31.8,20.7,29.43,NE,45,0.0,0.0,63,0.00,,,0.00,WUHU21623XXSP,2013-03-16 13:54:00,
2013-03-16 08:59:00,31.1,19.2,29.43,NE,45,0.0,1.8,61,0.00,,,0.00,WUHU21623XXSP,2013-03-16 13:59:00,
2013-03-16 09:04:00,30.4,18.9,29.44,NE,45,0.0,1.8,60,0.00,,,0.00,WUHU21623XXSP,2013-03-16 14:04:00,
2013-03-16 09:09:00,29.1,18.0,29.44,NE,45,0.0,0.0,61,0.00,,,0.00,WUHU21623XXSP,2013-03-16 14:09:00,
2013-03-16 09:14:00,27.5,16.2,29.44,NE,45,0.0,0.0,62,0.00,,,0.00,WUHU21623XXSP,2013-03-16 14:14:00,
2013-03-16 09:19:00,27.5,16.5,29.44,NE,45,0.0,0.0,63,0.00,,,0.00,WUHU21623XXSP,2013-03-16 14:19:00,
2013-03-16 09:24:00,27.7,16.7,29.44,NE,45,0.0,0.0,63,0.00,,,0.00,WUHU21623XXSP,2013-03-16 14:24:00,
2013-03-16 09:29:00,27.3,16.3,29.44,NE,45,3.6,3.6,63,0.00,,,0.00,WUHU21623XXSP,2013-03-16 14:29:00,
2013-03-16 09:34:00,27.1,16.2,29.45,NE,45,0.0,3.6,63,0.00,,,0.00,WUHU21623XXSP,2013-03-16 14:34:00,
2013-03-16 09:39:00,27.0,16.3,29.45,NE,45,0.0,0.0,64,0.00,,,0.00,WUHU21623XXSP,2013-03-16 14:39:00,
2013-03-16 09:44:00,29.8,19.8,29.45,NE,45,0.0,0.0,66,0.00,,,0.00,WUHU21623XXSP,2013-03-16 14:44:00,
2013-03-16 09:49:00,32.9,20.9,29.45,NE,45,0.0,0.0,61,0.00,,,0.00,WUHU21623XXSP,2013-03-16 14:49:00,
2013-03-16 09:54:00,32.5,19.4,29.46,NE,45,0.0,0.0,58,0.00,,,0.00,WUHU21623XXSP,2013-03-16 14:54:00,
2013-03-16 09:59:00,30.4,17.7,29.46,NE,45,0.0,0.0,59,0.00,,,0.00,WUHU21623XXSP,2013-03-16 14:59:00,
2013-03-16 10:04:00,29.5,17.3,29.46,NE,45,0.0,0.0,60,0.00,,,0.00,WUHU21623XXSP,2013-03-16 15:04:00,
2013-03-16 10:09:00,28.9,17.2,29.46,NE,45,0.0,0.0,61,0.00,,,0.00,WUHU21623XXSP,2013-03-16 15:09:00,
2013-03-16 10:14:00,30.0,18.2,29.46,NE,45,0.0,0.0,61,0.00,,,0.00,WUHU21623XXSP,2013-03-16 15:14:00,
2013-03-16 10:19:00,31.1,19.2,29.46,NE,45,0.0,0.0,61,0.00,,,0.00,WUHU21623XXSP,2013-03-16 15:19:00,
2013-03-16 10:24:00,33.3,20.5,29.46,NE,45,0.0,0.0,59,0.00,,,0.00,WUHU21623XXSP,2013-03-16 15:24:00,
2013-03-16 10:29:00,35.2,21.1,29.46,NE,45,0.0,3.1,56,0.00,,,0.00,WUHU21623XXSP,2013-03-16 15:29:00,
2013-03-16 10:34:00,36.3,21.2,29.46,NE,45,0.0,3.1,54,0.00,,,0.00,WUHU21623XXSP,2013-03-16 15:34:00,
2013-03-16 10:39:00,36.3,20.8,29.46,NE,45,0.0,0.0,53,0.00,,,0.00,WUHU21623XXSP,2013-03-16 15:39:00,
2013-03-16 10:44:00,37.8,21.7,29.46,NE,45,0.0,3.6,52,0.02,,,0.02,WUHU21623XXSP,2013-03-16 15:44:00,
2013-03-16 10:50:00,39.0,22.4,29.46,NE,45,0.0,3.6,51,0.02,,,0.02,WUHU21623XXSP,2013-03-16 15:50:00,
2013-03-16 10:55:00,40.5,22.2,29.46,NE,45,5.6,5.6,48,0.02,,,0.02,WUHU21623XXSP,2013-03-16 15:55:00,
2013-03-16 11:00:00,41.0,22.5,29.46,NE,45,0.0,5.6,48,0.02,,,0.02,WUHU21623XXSP,2013-03-16 16:00:00,
2013-03-16 11:05:00,41.0,21.6,29.47,NE,45,0.0,0.0,46,0.02,,,0.02,WUHU21623XXSP,2013-03-16 16:05:00,
2013-03-16 11:10:00,40.8,21.5,29.47,NE,45,0.0,1.1,46,0.02,,,0.02,WUHU21623XXSP,2013-03-16 16:10:00,
2013-03-16 11:15:00,40.6,20.3,29.47,NE,45,5.8,5.8,44,0.02,,,0.02,WUHU21623XXSP,2013-03-16 16:15:00,
2013-03-16 11:20:00,40.1,20.3,29.47,NE,45,0.0,5.8,45,0.02,,,0.02,WUHU21623XXSP,2013-03-16 16:20:00,
2013-03-16 11:25:00,41.2,21.3,29.47,NE,45,0.0,3.4,45,0.02,,,0.02,WUHU21623XXSP,2013-03-16 16:25:00,
2013-03-16 11:30:00,41.7,21.3,29.47,NE,45,0.0,0.0,44,0.02,,,0.02,WUHU21623XXSP,2013-03-16 16:30:00,
2013-03-16 11:35:00,40.3,19.4,29.47,NE,45,0.0,0.0,43,0.02,,,0.02,WUHU21623XXSP,2013-03-16 16:35:00,
2013-03-16 11:40:00,39.9,19.6,29.48,NE,45,0.0,0.0,44,0.02,,,0.02,WUHU21623XXSP,2013-03-16 16:40:00,
2013-03-16 11:45:00,40.8,20.4,29.48,NE,45,0.0,0.0,44,0.00,,,0.02,WUHU21623XXSP,2013-03-16 16:45:00,
2013-03-16 11:50:00,40.5,19.6,29.47,NE,45,3.4,3.4,45,0.00,,,0.02,WUHU21623XXSP,2013-03-16 16:50:00,
2013-03-16 11:55:00,41.5,21.6,29.47,NE,45,0.0,3.4,45,0.00,,,0.02,WUHU21623XXSP,2013-03-16 16:55:00,
2013-03-16 12:00:00,41.4,21.3,29.47,NE,45,0.0,0.0,44,0.00,,,0.02,WUHU21623XXSP,2013-03-16 17:00:00,
2013-03-16 12:05:00,41.0,21.6,29.48,NE,45,0.0,0.0,46,0.00,,,0.02,WUHU21623XXSP,2013-03-16 17:05:00,
2013-03-16 12:10:00,42.6,21.6,29.47,NE,45,0.0,0.0,43,0.00,,,0.02,WUHU21623XXSP,2013-03-16 17:10:00,
2013-03-16 12:15:00,43.9,22.7,29.47,NE,45,0.0,0.0,43,0.00,,,0.02,WUHU21623XXSP,2013-03-16 17:15:00,
2013-03-16 12:20:00,45.1,22.8,29.47,NE,45,0.0,0.0,41,0.00,,,0.02,WUHU21623XXSP,2013-03-16 17:20:00,
2013-03-16 12:25:00,45.1,21.6,29.47,NE,45,0.0,0.0,39,0.00,,,0.02,WUHU21623XXSP,2013-03-16 17:25:00,
2013-03-16 12:30:00,43.7,20.9,29.48,NE,45,0.0,0.0,40,0.00,,,0.02,WUHU21623XXSP,2013-03-16 17:30:00,
2013-03-16 12:35:00,43.2,21.0,29.47,NE,45,0.0,3.6,41,0.00,,,0.02,WUHU21623XXSP,2013-03-16 17:35:00,
2013-03-16 12:40:00,43.2,21.0,29.47,NE,45,0.0,3.6,41,0.00,,,0.02,WUHU21623XXSP,2013-03-16 17:40:00,
2013-03-16 12:45:00,43.5,20.8,29.47,NE,45,0.0,0.0,40,0.00,,,0.02,WUHU21623XXSP,2013-03-16 17:45:00,
2013-03-16 12:50:00,43.2,20.8,29.47,NE,45,5.6,5.6,40,0.00,,,0.02,WUHU21623XXSP,2013-03-16 17:50:00,
2013-03-16 12:55:00,41.2,18.7,29.47,NE,45,0.0,5.6,40,0.00,,,0.02,WUHU21623XXSP,2013-03-16 17:55:00,
2013-03-16 13:01:00,39.9,18.6,29.48,NE,45,0.0,3.8,42,0.00,,,0.02,WUHU21623XXSP,2013-03-16 18:01:00,
2013-03-16 13:06:00,40.3,18.9,29.48,NE,45,0.0,3.6,42,0.00,,,0.02,WUHU21623XXSP,2013-03-16 18:06:00,
2013-03-16 13:11:00,39.7,18.4,29.48,NE,45,0.0,0.0,42,0.00,,,0.02,WUHU21623XXSP,2013-03-16 18:11:00,
2013-03-16 13:16:00,39.2,18.4,29.48,NE,45,0.0,0.0,43,0.00,,,0.02,WUHU21623XXSP,2013-03-16 18:16:00,
2013-03-16 13:21:00,38.1,18.0,29.48,NE,45,0.0,0.0,44,0.00,,,0.02,WUHU21623XXSP,2013-03-16 18:21:00,
2013-03-16 13:26:00,37.2,18.4,29.48,NE,45,1.6,1.6,44,0.00,,,0.02,WUHU21623XXSP,2013-03-16 18:26:00,
2013-03-16 13:31:00,36.3,17.9,29.48,NE,45,0.0,1.6,47,0.00,,,0.02,WUHU21623XXSP,2013-03-16 18:31:00,
2013-03-16 13:36:00,36.3,17.9,29.48,NE,45,0.0,0.0,47,0.00,,,0.02,WUHU21623XXSP,2013-03-16 18:36:00,
2013-03-16 13:41:00,36.1,18.3,29.48,NE,45,0.0,0.0,48,0.00,,,0.02,WUHU21623XXSP,2013-03-16 18:41:00,
2013-03-16 13:46:00,36.7,18.3,29.48,NE,45,0.0,0.0,47,0.00,,,0.02,WUHU21623XXSP,2013-03-16 18:46:00,
2013-03-16 13:51:00,36.1,17.9,29.48,NE,45,0.0,0.0,47,0.00,,,0.02,WUHU21623XXSP,2013-03-16 18:51:00,
2013-03-16 13:56:00,36.1,17.8,29.48,NE,45,0.0,0.0,47,0.00,,,0.02,WUHU21623XXSP,2013-03-16 18:56:00,
2013-03-16 14:01:00,34.9,16.6,29.48,NE,45,0.0,0.0,47,0.00,,,0.02,WUHU21623XXSP,2013-03-16 19:01:00,
2013-03-16 14:06:00,35.1,17.3,29.48,NE,45,0.0,0.0,48,0.00,,,0.02,WUHU21623XXSP,2013-03-16 19:06:00,
2013-03-16 14:11:00,34.9,17.1,29.48,NE,45,0.0,0.0,48,0.00,,,0.02,WUHU21623XXSP,2013-03-16 19:11:00,
2013-03-16 14:16:00,35.4,18.2,29.48,NE,45,0.0,0.0,49,0.00,,,0.02,WUHU21623XXSP,2013-03-16 19:16:00,
2013-03-16 14:21:00,34.9,17.1,29.48,NE,45,0.0,0.0,48,0.00,,,0.02,WUHU21623XXSP,2013-03-16 19:21:00,
2013-03-16 14:26:00,33.3,16.1,29.48,NE,45,0.0,0.0,49,0.00,,,0.02,WUHU21623XXSP,2013-03-16 19:26:00,
2013-03-16 14:32:00,32.5,16.4,29.47,NE,45,0.0,4.0,51,0.00,,,0.02,WUHU21623XXSP,2013-03-16 19:32:00,
2013-03-16 14:37:00,32.2,16.5,29.47,NE,45,0.0,4.0,52,0.00,,,0.02,WUHU21623XXSP,2013-03-16 19:37:00,
2013-03-16 14:42:00,31.3,16.0,29.47,NE,45,0.0,0.0,52,0.00,,,0.02,WUHU21623XXSP,2013-03-16 19:42:00,
2013-03-16 14:47:00,30.6,15.4,29.47,NE,45,0.0,0.0,53,0.00,,,0.02,WUHU21623XXSP,2013-03-16 19:47:00,
2013-03-16 14:52:00,29.7,14.6,29.47,NE,45,0.0,0.0,53,0.00,,,0.02,WUHU21623XXSP,2013-03-16 19:52:00,
2013-03-16 14:57:00,29.3,15.1,29.47,WSW,247,0.0,0.0,55,0.00,,,0.02,WUHU21623XXSP,2013-03-16 19:57:00,
2013-03-16 15:02:00,30.7,16.0,29.48,WSW,247,0.0,0.0,54,0.00,,,0.02,WUHU21623XXSP,2013-03-16 20:02:00,
2013-03-16 15:07:00,31.8,16.6,29.47,WSW,247,0.0,0.0,53,0.00,,,0.02,WUHU21623XXSP,2013-03-16 20:07:00,
2013-03-16 15:12:00,32.4,16.6,29.47,WSW,247,0.0,0.0,52,0.00,,,0.02,WUHU21623XXSP,2013-03-16 20:12:00,
2013-03-16 15:17:00,32.7,16.5,29.47,WSW,247,0.0,0.0,51,0.00,,,0.02,WUHU21623XXSP,2013-03-16 20:17:00,
2013-03-16 15:22:00,33.1,15.9,29.47,WSW,247,0.0,0.0,49,0.00,,,0.02,WUHU21623XXSP,2013-03-16 20:22:00,
2013-03-16 15:27:00,32.7,16.1,29.46,WSW,247,1.8,1.8,50,0.00,,,0.02,WUHU21623XXSP,2013-03-16 20:27:00,
2013-03-16 15:32:00,32.7,16.1,29.46,WSW,247,1.3,1.8,50,0.00,,,0.02,WUHU21623XXSP,2013-03-16 20:32:00,
2013-03-16 15:37:00,32.4,15.8,29.46,WSW,247,0.0,1.3,50,0.00,,,0.02,WUHU21623XXSP,2013-03-16 20:37:00,
2013-03-16 15:42:00,32.2,15.6,29.46,WSW,247,0.0,1.3,50,0.00,,,0.02,WUHU21623XXSP,2013-03-16 20:42:00,
2013-03-16 15:47:00,31.6,15.1,29.45,WSW,247,0.0,0.0,50,0.00,,,0.02,WUHU21623XXSP,2013-03-16 20:47:00,
2013-03-16 15:52:00,31.3,15.6,29.45,WSW,247,0.0,0.0,52,0.00,,,0.02,WUHU21623XXSP,2013-03-16 20:52:00,
2013-03-16 15:57:00,31.3,15.6,29.45,WSW,247,4.0,4.0,52,0.00,,,0.02,WUHU21623XXSP,2013-03-16 20:57:00,
2013-03-16 16:02:00,31.1,15.5,29.45,WSW,247,0.0,4.0,52,0.00,,,0.02,WUHU21623XXSP,2013-03-16 21:02:00,
2013-03-16 16:07:00,31.1,15.0,29.45,WSW,247,0.0,4.0,51,0.00,,,0.02,WUHU21623XXSP,2013-03-16 21:07:00,
2013-03-16 16:12:00,31.3,15.6,29.45,WSW,247,0.0,0.0,52,0.00,,,0.02,WUHU21623XXSP,2013-03-16 21:12:00,
2013-03-16 16:17:00,31.5,15.8,29.45,WSW,247,0.0,0.0,51,0.00,,,0.02,WUHU21623XXSP,2013-03-16 21:17:00,
2013-03-16 16:22:00,31.3,15.6,29.44,WSW,247,0.0,0.0,52,0.00,,,0.02,WUHU21623XXSP,2013-03-16 21:22:00,
2013-03-16 16:27:00,31.1,15.5,29.44,WSW,247,3.4,3.4,52,0.00,,,0.02,WUHU21623XXSP,2013-03-16 21:27:00,
2013-03-16 16:32:00,30.9,15.3,29.44,WSW,247,4.0,4.0,52,0.00,,,0.02,WUHU21623XXSP,2013-03-16 21:32:00,
2013-03-16 16:37:00,30.7,15.1,29.44,WSW,247,0.0,6.3,52,0.00,,,0.02,WUHU21623XXSP,2013-03-16 21:37:00,
2013-03-16 16:42:00,30.7,15.5,29.44,WSW,247,0.0,6.3,52,0.00,,,0.02,WUHU21623XXSP,2013-03-16 21:42:00,
2013-03-16 16:48:00,30.6,15.0,29.44,WSW,247,0.0,0.0,52,0.00,,,0.02,WUHU21623XXSP,2013-03-16 21:48:00,
2013-03-16 16:53:00,30.0,14.5,29.44,WSW,247,0.0,0.0,52,0.00,,,0.02,WUHU21623XXSP,2013-03-16 21:53:00,
2013-03-16 16:58:00,30.0,14.9,29.44,WSW,247,0.0,0.0,53,0.00,,,0.02,WUHU21623XXSP,2013-03-16 21:58:00,
2013-03-16 17:03:00,29.7,14.6,29.44,WSW,247,0.0,0.0,53,0.00,,,0.02,WUHU21623XXSP,2013-03-16 22:03:00,
2013-03-16 17:08:00,29.5,14.8,29.43,WSW,247,0.0,0.0,54,0.00,,,0.02,WUHU21623XXSP,2013-03-16 22:08:00,
2013-03-16 17:13:00,29.1,14.5,29.43,WSW,247,0.0,0.0,54,0.00,,,0.02,WUHU21623XXSP,2013-03-16 22:13:00,
2013-03-16 17:18:00,28.6,13.6,29.43,WSW,247,0.0,0.0,53,0.00,,,0.02,WUHU21623XXSP,2013-03-16 22:18:00,
2013-03-16 17:23:00,28.6,14.0,29.44,WSW,247,0.0,0.0,54,0.00,,,0.02,WUHU21623XXSP,2013-03-16 22:23:00,
2013-03-16 17:28:00,28.6,14.0,29.44,WSW,247,0.0,0.0,54,0.00,,,0.02,WUHU21623XXSP,2013-03-16 22:28:00,
2013-03-16 17:33:00,28.2,13.7,29.44,WSW,247,0.0,0.0,54,0.00,,,0.02,WUHU21623XXSP,2013-03-16 22:33:00,
2013-03-16 17:38:00,28.0,13.5,29.44,WSW,247,0.0,0.0,54,0.00,,,0.02,WUHU21623XXSP,2013-03-16 22:38:00,
2013-03-16 17:43:00,27.7,13.1,29.44,WSW,247,0.0,0.0,54,0.00,,,0.02,WUHU21623XXSP,2013-03-16 22:43:00,
2013-03-16 17:48:00,27.3,13.2,29.44,NE,45,0.0,0.0,55,0.00,,,0.02,WUHU21623XXSP,2013-03-16 22:48:00,
2013-03-16 17:53:00,27.1,13.0,29.44,NE,45,0.0,0.0,55,0.00,,,0.02,WUHU21623XXSP,2013-03-16 22:53:00,
2013-03-16 17:58:00,27.0,12.8,29.44,NE,45,0.0,0.0,55,0.00,,,0.02,WUHU21623XXSP,2013-03-16 22:58:00,
2013-03-16 18:03:00,26.6,12.5,29.44,NE,45,0.0,0.0,55,0.00,,,0.02,WUHU21623XXSP,2013-03-16 23:03:00,
2013-03-16 18:08:00,26.4,12.3,29.45,NE,45,0.0,0.0,55,0.00,,,0.02,WUHU21623XXSP,2013-03-16 23:08:00,
2013-03-16 18:13:00,26.1,12.0,29.46,NE,45,0.0,0.0,55,0.00,,,0.02,WUHU21623XXSP,2013-03-16 23:13:00,
2013-03-16 18:18:00,25.9,12.2,29.46,NE,45,0.0,0.0,56,0.00,,,0.02,WUHU21623XXSP,2013-03-16 23:18:00,
2013-03-16 18:23:00,25.9,12.2,29.46,NE,45,0.0,0.0,56,0.00,,,0.02,WUHU21623XXSP,2013-03-16 23:23:00,
2013-03-16 18:28:00,25.5,11.9,29.47,NE,45,0.0,0.0,56,0.00,,,0.02,WUHU21623XXSP,2013-03-16 23:28:00,
2013-03-16 18:33:00,25.3,11.8,29.47,NE,45,0.0,0.0,56,0.00,,,0.02,WUHU21623XXSP,2013-03-16 23:33:00,
2013-03-16 18:38:00,25.0,11.6,29.47,NE,45,0.0,0.0,56,0.00,,,0.02,WUHU21623XXSP,2013-03-16 23:38:00,
2013-03-16 18:43:00,24.4,10.9,29.47,NE,45,0.0,0.0,56,0.00,,,0.02,WUHU21623XXSP,2013-03-16 23:43:00,
2013-03-16 18:48:00,24.1,11.0,29.48,NE,45,0.0,0.0,57,0.00,,,0.02,WUHU21623XXSP,2013-03-16 23:48:00,
2013-03-16 18:53:00,23.7,10.6,29.48,NE,45,0.0,0.0,57,0.00,,,0.02,WUHU21623XXSP,2013-03-16 23:53:00,
2013-03-16 18:59:00,23.2,10.5,29.48,NE,45,0.0,0.0,58,0.00,,,0.02,WUHU21623XXSP,2013-03-16 23:59:00,
2013-03-16 19:04:00,22.8,10.1,29.49,NE,45,0.0,0.0,58,0.00,,,0.02,WUHU21623XXSP,2013-03-17 00:04:00,
2013-03-16 19:09:00,22.6,10.1,29.49,NE,45,0.0,0.0,58,0.00,,,0.02,WUHU21623XXSP,2013-03-17 00:09:00,
2013-03-16 19:14:00,21.6,9.4,29.49,NE,45,0.0,0.0,59,0.00,,,0.02,WUHU21623XXSP,2013-03-17 00:14:00,
2013-03-16 19:19:00,21.0,8.9,29.49,NE,45,0.0,0.0,59,0.00,,,0.02,WUHU21623XXSP,2013-03-17 00:19:00,
2013-03-16 19:24:00,20.8,9.1,29.50,NE,45,0.0,0.0,60,0.00,,,0.02,WUHU21623XXSP,2013-03-17 00:24:00,
2013-03-16 19:29:00,20.8,9.1,29.49,NE,45,0.0,0.0,60,0.00,,,0.02,WUHU21623XXSP,2013-03-17 00:29:00,
2013-03-16 19:34:00,19.9,9.1,29.50,NE,45,0.0,0.0,60,0.00,,,0.02,WUHU21623XXSP,2013-03-17 00:34:00,
2013-03-16 19:39:00,19.6,8.4,29.50,NE,45,0.0,0.0,61,0.00,,,0.02,WUHU21623XXSP,2013-03-17 00:39:00,
2013-03-16 19:44:00,19.6,8.2,29.50,NE,45,0.0,0.0,61,0.00,,,0.02,WUHU21623XXSP,2013-03-17 00:44:00,
2013-03-16 19:49:00,19.6,8.2,29.50,NE,45,0.0,0.0,61,0.00,,,0.02,WUHU21623XXSP,2013-03-17 00:49:00,
2013-03-16 19:54:00,19.6,8.2,29.50,NE,45,0.0,0.0,61,0.00,,,0.02,WUHU21623XXSP,2013-03-17 00:54:00,
2013-03-16 19:59:00,19.6,8.2,29.50,NE,45,0.0,0.0,61,0.00,,,0.02,WUHU21623XXSP,2013-03-17 00:59:00,
2013-03-16 20:04:00,19.6,8.2,29.51,NE,45,0.0,0.0,61,0.00,,,0.02,WUHU21623XXSP,2013-03-17 01:04:00,
2013-03-16 22:09:00,16.2,7.0,29.55,NE,45,0.0,0.0,67,0.00,,,0.02,WUHU21623XXSP,2013-03-17 03:09:00,
2013-03-16 22:14:00,16.0,6.9,29.55,NE,45,0.0,0.0,67,0.00,,,0.02,WUHU21623XXSP,2013-03-17 03:14:00,
2013-03-16 22:19:00,16.0,6.9,29.55,NE,45,0.0,0.0,67,0.00,,,0.02,WUHU21623XXSP,2013-03-17 03:19:00,
2013-03-16 22:24:00,15.6,6.5,29.56,NE,45,0.0,0.0,67,0.00,,,0.02,WUHU21623XXSP,2013-03-17 03:24:00,
2013-03-16 22:29:00,15.6,6.5,29.56,NE,45,0.0,0.0,67,0.00,,,0.02,WUHU21623XXSP,2013-03-17 03:29:00,
2013-03-16 22:34:00,15.6,6.5,29.56,NE,45,0.0,0.0,67,0.00,,,0.02,WUHU21623XXSP,2013-03-17 03:34:00,
2013-03-16 22:39:00,15.4,6.3,29.56,NE,45,0.0,0.0,67,0.00,,,0.02,WUHU21623XXSP,2013-03-17 03:39:00,
2013-03-16 22:44:00,15.3,6.2,29.56,NE,45,0.0,0.0,67,0.00,,,0.02,WUHU21623XXSP,2013-03-17 03:44:00,
2013-03-16 22:49:00,15.1,6.0,29.56,NE,45,0.0,0.0,67,0.00,,,0.02,WUHU21623XXSP,2013-03-17 03:49:00,
2013-03-16 22:54:00,14.9,6.2,29.56,NE,45,0.0,0.0,68,0.00,,,0.02,WUHU21623XXSP,2013-03-17 03:54:00,
2013-03-16 22:59:00,14.7,6.0,29.56,NE,45,0.0,0.0,68,0.00,,,0.02,WUHU21623XXSP,2013-03-17 03:59:00,
2013-03-16 23:00:00,14.7,6.0,29.56,NE,45,0.0,0.0,68,0.00,,,0.02,WUHU21623XXSP,2013-03-17 04:00:00,
2013-03-16 23:01:00,14.7,6.0,29.56,NE,45,0.0,0.0,68,0.00,,,0.02,WUHU21623XXSP,2013-03-17 04:01:00,
2013-03-16 23:06:00,14.7,6.0,29.56,NE,45,0.0,0.0,68,0.00,,,0.02,WUHU21623XXSP,2013-03-17 04:06:00,
2013-03-16 23:11:00,14.5,5.9,29.57,NE,45,0.0,0.0,68,0.00,,,0.02,WUHU21623XXSP,2013-03-17 04:11:00,
2013-03-16 23:16:00,14.5,5.9,29.57,NE,45,0.0,0.0,68,0.00,,,0.02,WUHU21623XXSP,2013-03-17 04:16:00,
2013-03-16 23:21:00,14.5,5.9,29.57,NE,45,0.0,0.0,68,0.00,,,0.02,WUHU21623XXSP,2013-03-17 04:21:00,
2013-03-16 23:26:00,14.5,5.9,29.57,NE,45,0.0,0.0,68,0.00,,,0.02,WUHU21623XXSP,2013-03-17 04:26:00,